Hourly Data Report for March 25, 2012

All times are specified in Local Standard Time (LST). Add 1 hour to adjust for Daylight Saving Time where and when it is observed.

HALIFAX STANFIELD INT'L A
NOVA SCOTIA

44°52'48.060" N
63°30'00.050" W
145.40 m
8202250
71395
YHZ

Download Data

Hourly Data (March 2012)
Hourly Data Report for March 25, 2012
TIME Temp Definition
°C
Dew Point Definition
°C
Rel Hum Definition
%
Wind Dir Definition
10's deg

Wind Spd Definition
km/h
Visibility Definition
km
Stn Press Definition
kPa
Hmdx Definition


Wind Chill Definition


Weather Definition


00:00 -0.3 -11.2 44 33 19 24.1 99.70   -5 Clear
01:00 -1.2 -12.1 43 29 13 24.1 99.73   -5 Clear
02:00 -1.2 -13.4 39 31 13 24.1 99.73   -5 Clear
03:00 -1.6 -12.8 42 29 13 24.1 99.73   -6 Clear
04:00 -1.5 -12.3 44 31 13 24.1 99.73   -6 Clear
05:00 -1.9 -12.2 45 31 17 24.1 99.74   -7 Clear
06:00 -2.2 -12.5 45 31 15 24.1 99.78   -7 Mainly Clear
07:00 -1.0 -12.3 42 31 13 24.1 99.83   -5 Mostly Cloudy
08:00 0.2 -12.2 39 29 7 24.1 99.86     Mostly Cloudy
09:00 1.3 -13.0 34 4 7 24.1 99.85     Mostly Cloudy
10:00 2.5 -14.2 28 19 4 24.1 99.85     Mostly Cloudy
11:00 4.1 -13.7 26   0 24.1 99.79     Mostly Cloudy
12:00 5.8 -14.0 23 30 9 24.1 99.76     Mostly Cloudy
13:00 6.6 -14.1 21 27 11 24.1 99.66     Mostly Cloudy
14:00 6.1 -7.8 36 18 22 24.1 99.64     Cloudy
15:00 5.7 -10.4 30 21 28 24.1 99.57     Cloudy
16:00 4.1 -9.8 36 22 28 24.1 99.59     Cloudy
17:00 0.7 -3.2 75 22 13 2.0 99.60     Snow
18:00 0.1 -2.0 86 16 9 24.1 99.55     Drizzle
19:00 0.1 -3.7 76 17 13 16.1 99.53     Snow Grains
20:00 0.6 -2.1 82 18 19 24.1 99.43     Cloudy
21:00 0.7 -2.5 79 18 17 24.1 99.36     Cloudy
22:00 0.2 -1.3 90 17 19 19.3 99.26     Cloudy
23:00 0.2 -0.8 93 16 15 19.3 99.16     Snow Showers

Notes on Data Quality.

Legend

  • E = Estimated
  • M = Missing
  • NA = Not Available
Date modified: